project_name,platform_name,Date_(yyyymmdd),Time_(hh24miss),beacon_ID,latitude_DD,longitude_DD,altitude_m,altitude_result_value_type,speed_m_s,speed_result_value_type,direction_degrees,direction_result_value_type,fix,sat
BaySys,Amundsen,2008-05-25,22:30:35,300034012612770,72.5339,-129.6257,11.9388,Actual,,Calculated,186.1600,Calculated,1,7
BaySys,Amundsen,2008-05-26,00:30:23,300034012612770,72.5218,-129.6468,1.6650,Actual,,Calculated,220.5300,Calculated,1,8
BaySys,Amundsen,2008-05-26,02:30:01,300034012612770,72.5086,-129.6536,-1.0288,Actual,,Calculated,162.1800,Calculated,1,7
BaySys,Amundsen,2008-05-26,04:29:57,300034012612770,72.4918,-129.6621,-0.0256,Actual,,Calculated,151.4200,Calculated,1,6
BaySys,Amundsen,2008-05-26,06:30:29,300034012612770,72.4797,-129.6564,-0.1795,Actual,,Calculated,147.1500,Calculated,1,7
BaySys,Amundsen,2008-05-26,08:29:54,300034012612770,72.4659,-129.6223,0.6834,Actual,,Calculated,135.4800,Calculated,1,8
BaySys,Amundsen,2008-05-26,10:30:23,300034012612770,72.4346,-129.5806,8.7882,Actual,,Calculated,167.2400,Calculated,1,8
BaySys,Amundsen,2008-05-26,12:30:33,300034012612770,72.3929,-129.5607,7.6152,Actual,,Calculated,177.2900,Calculated,1,8
BaySys,Amundsen,2008-05-26,14:29:55,300034012612770,72.3565,-129.5639,1.9131,Actual,,Calculated,184.0700,Calculated,1,11
BaySys,Amundsen,2008-05-26,16:30:29,300034012612770,72.3303,-129.5774,4.5395,Actual,,Calculated,194.8500,Calculated,1,6
BaySys,Amundsen,2008-05-26,18:30:03,300034012612770,72.3139,-129.5772,4.0211,Actual,,Calculated,149.8800,Calculated,1,8
BaySys,Amundsen,2008-05-26,20:30:03,300034012612770,72.2988,-129.5433,2.0835,Actual,,Calculated,136.3400,Calculated,1,9
BaySys,Amundsen,2008-05-26,22:30:35,300034012612770,72.2773,-129.4934,9.1070,Actual,,Calculated,169.3700,Calculated,1,8
BaySys,Amundsen,2008-05-27,00:30:05,300034012612770,72.2484,-129.4581,-2.8110,Actual,,Calculated,177.0400,Calculated,1,9
BaySys,Amundsen,2008-05-27,02:30:35,300034012612770,72.2202,-129.4542,0.7567,Actual,,Calculated,182.2800,Calculated,1,9
BaySys,Amundsen,2008-05-27,04:30:28,300034012612770,72.2006,-129.4695,2.7661,Actual,,Calculated,195.5000,Calculated,1,8
BaySys,Amundsen,2008-05-27,06:30:16,300034012612770,72.1878,-129.4746,-1.1487,Actual,,Calculated,192.3400,Calculated,1,9
BaySys,Amundsen,2008-05-27,08:30:19,300034012612770,72.1748,-129.4622,3.1639,Actual,,Calculated,144.3600,Calculated,1,11
BaySys,Amundsen,2008-05-27,10:30:59,300034012612770,72.1571,-129.4448,12.0758,Actual,,Calculated,185.8900,Calculated,1,12
BaySys,Amundsen,2008-05-27,12:30:21,300034012612770,72.1341,-129.4252,-0.9662,Actual,,Calculated,162.2200,Calculated,1,12
BaySys,Amundsen,2008-05-27,14:31:05,300034012612770,72.1084,-129.4146,9.1382,Actual,,Calculated,180.4500,Calculated,1,10
BaySys,Amundsen,2008-05-27,16:31:05,300034012612770,72.0859,-129.4129,4.6399,Actual,,Calculated,167.7200,Calculated,1,8
BaySys,Amundsen,2008-05-27,18:31:05,300034012612770,72.0703,-129.4096,6.5540,Actual,,Calculated,163.8600,Calculated,1,9
BaySys,Amundsen,2008-05-27,20:30:38,300034012612770,72.0595,-129.4009,1.3067,Actual,,Calculated,298.2400,Calculated,1,9
BaySys,Amundsen,2008-05-27,22:30:32,300034012612770,72.0527,-129.3750,2.7347,Actual,,Calculated,109.0100,Calculated,1,10
BaySys,Amundsen,2008-05-28,00:31:05,300034012612770,72.0430,-129.3294,-2.5354,Actual,,Calculated,61.1400,Calculated,1,11
BaySys,Amundsen,2008-05-28,02:30:54,300034012612770,72.0252,-129.2807,-3.9596,Actual,,Calculated,80.0500,Calculated,1,8
BaySys,Amundsen,2008-05-28,04:30:40,300034012612770,72.0059,-129.2479,-1.5602,Actual,,Calculated,168.7700,Calculated,1,7
BaySys,Amundsen,2008-05-28,06:31:05,300034012612770,71.9934,-129.2238,0.6993,Actual,,Calculated,111.4500,Calculated,1,8
BaySys,Amundsen,2008-05-28,08:30:43,300034012612770,71.9892,-129.1977,1.6778,Actual,,Calculated,94.6300,Calculated,1,11
BaySys,Amundsen,2008-05-28,10:31:29,300034012612770,71.9903,-129.1529,4.7374,Actual,,Calculated,77.0100,Calculated,1,11
BaySys,Amundsen,2008-05-28,12:31:23,300034012612770,71.9886,-129.0894,-2.5956,Actual,,Calculated,91.3500,Calculated,1,13
BaySys,Amundsen,2008-05-28,14:31:01,300034012612770,71.9789,-129.0368,3.0795,Actual,,Calculated,133.6800,Calculated,1,6
BaySys,Amundsen,2008-05-28,16:31:29,300034012612770,71.9661,-129.0141,-0.5729,Actual,,Calculated,122.5100,Calculated,1,8
BaySys,Amundsen,2008-05-28,18:31:23,300034012612770,71.9593,-129.0164,-7.7514,Actual,,Calculated,233.6900,Calculated,1,8
BaySys,Amundsen,2008-05-28,20:31:03,300034012612770,71.9633,-129.0194,-3.0644,Actual,,Calculated,13.6100,Calculated,1,12
BaySys,Amundsen,2008-05-28,22:30:59,300034012612770,71.9727,-129.0028,9.2002,Actual,,Calculated,55.8900,Calculated,1,10
BaySys,Amundsen,2008-05-29,00:31:35,300034012612770,71.9781,-128.9654,-5.6189,Actual,,Calculated,99.5600,Calculated,1,12
BaySys,Amundsen,2008-05-29,02:31:05,300034012612770,71.9734,-128.9281,1.6061,Actual,,Calculated,130.3500,Calculated,1,9
BaySys,Amundsen,2008-05-29,04:31:04,300034012612770,71.9611,-128.9129,1.1405,Actual,,Calculated,208.9000,Calculated,1,8
BaySys,Amundsen,2008-05-29,06:31:35,300034012612770,71.9469,-128.9299,11.0064,Actual,,Calculated,239.8400,Calculated,1,7
BaySys,Amundsen,2008-05-29,08:31:10,300034012612770,71.9417,-128.9612,1.3118,Actual,,Calculated,269.9500,Calculated,1,10
BaySys,Amundsen,2008-05-29,10:31:20,300034012612770,71.9463,-128.9820,3.7678,Actual,,Calculated,321.4800,Calculated,1,10
BaySys,Amundsen,2008-05-29,12:31:12,300034012612770,71.9500,-128.9794,65.8425,Actual,,Calculated,116.3300,Calculated,1,15
BaySys,Amundsen,2008-05-30,14:32:00,300034012612770,71.8246,-129.2181,3.0707,Actual,,Calculated,202.1500,Calculated,1,8
BaySys,Amundsen,2008-05-30,16:32:23,300034012612770,71.8121,-129.1998,1.6408,Actual,,Calculated,174.9900,Calculated,1,10
BaySys,Amundsen,2008-05-30,18:32:21,300034012612770,71.7917,-129.1886,-11.2862,Actual,,Calculated,179.8500,Calculated,1,10
BaySys,Amundsen,2008-05-30,20:31:53,300034012612770,71.7754,-129.2008,-2.8927,Actual,,Calculated,207.2000,Calculated,1,12
BaySys,Amundsen,2008-05-30,22:32:35,300034012612770,71.7707,-129.2110,-2.2986,Actual,,Calculated,265.7700,Calculated,1,12
BaySys,Amundsen,2008-05-31,00:31:58,300034012612770,71.7730,-129.2022,-7.0193,Actual,,Calculated,96.1000,Calculated,1,9
BaySys,Amundsen,2008-05-31,02:32:03,300034012612770,71.7744,-129.1771,-4.2891,Actual,,Calculated,92.4200,Calculated,1,11
BaySys,Amundsen,2008-05-31,04:32:35,300034012612770,71.7641,-129.1402,-2.2529,Actual,,Calculated,147.6500,Calculated,1,9
BaySys,Amundsen,2008-05-31,06:32:35,300034012612770,71.7407,-129.1153,3.1460,Actual,,Calculated,204.1100,Calculated,1,10
BaySys,Amundsen,2008-05-31,08:32:13,300034012612770,71.7173,-129.1210,0.2903,Actual,,Calculated,199.7100,Calculated,1,9
BaySys,Amundsen,2008-05-31,10:32:35,300034012612770,71.7015,-129.1383,4.2077,Actual,,Calculated,159.3100,Calculated,1,7
BaySys,Amundsen,2008-05-31,12:32:18,300034012612770,71.6957,-129.1476,22.0566,Actual,,Calculated,163.1800,Calculated,1,12
BaySys,Amundsen,2008-05-31,14:32:53,300034012612770,71.6908,-129.1314,-3.3859,Actual,,Calculated,125.5400,Calculated,1,12
BaySys,Amundsen,2008-05-31,16:32:53,300034012612770,71.6803,-129.0983,1.3690,Actual,,Calculated,158.7600,Calculated,1,9
BaySys,Amundsen,2008-05-31,18:32:24,300034012612770,71.6611,-129.0717,-7.1511,Actual,,Calculated,158.6200,Calculated,1,10
BaySys,Amundsen,2008-05-31,20:32:24,300034012612770,71.6410,-129.0609,-3.7038,Actual,,Calculated,182.4400,Calculated,1,10
BaySys,Amundsen,2008-05-31,22:32:28,300034012612770,71.6272,-129.0589,-3.3498,Actual,,Calculated,171.7400,Calculated,1,9
BaySys,Amundsen,2008-06-01,00:32:32,300034012612770,71.6167,-129.0638,47.5729,Actual,,Calculated,165.7200,Calculated,1,10
BaySys,Amundsen,2008-06-01,02:33:05,300034012612770,71.6099,-129.0694,-4.0289,Actual,,Calculated,57.7800,Calculated,1,13
BaySys,Amundsen,2008-06-01,04:32:50,300034012612770,71.6031,-129.0639,-1.6878,Actual,,Calculated,97.5700,Calculated,1,10
BaySys,Amundsen,2008-06-01,06:32:51,300034012612770,71.5930,-129.0382,7.2284,Actual,,Calculated,144.6400,Calculated,1,11
BaySys,Amundsen,2008-06-01,08:32:32,300034012612770,71.5776,-129.0074,-0.7013,Actual,,Calculated,142.9700,Calculated,1,8
BaySys,Amundsen,2008-06-01,10:32:36,300034012612770,71.5631,-128.9855,25.1354,Actual,,Calculated,164.8300,Calculated,1,13
BaySys,Amundsen,2008-06-01,12:33:05,300034012612770,71.5532,-128.9733,-3.5998,Actual,,Calculated,91.3400,Calculated,1,12
BaySys,Amundsen,2008-06-01,14:32:41,300034012612770,71.5494,-128.9676,3.1716,Actual,,Calculated,33.2700,Calculated,1,10
BaySys,Amundsen,2008-06-01,16:33:05,300034012612770,71.5504,-128.9547,8.4644,Actual,,Calculated,51.1200,Calculated,1,9
BaySys,Amundsen,2008-06-01,18:32:48,300034012612770,71.5490,-128.9225,-8.4255,Actual,,Calculated,119.4700,Calculated,1,11
BaySys,Amundsen,2008-06-01,20:32:50,300034012612770,71.5410,-128.8834,-2.8404,Actual,,Calculated,123.4100,Calculated,1,10
BaySys,Amundsen,2008-06-01,22:33:35,300034012612770,71.5301,-128.8556,6.2272,Actual,,Calculated,168.9400,Calculated,1,12
BaySys,Amundsen,2008-06-02,00:32:58,300034012612770,71.5221,-128.8436,-8.1123,Actual,,Calculated,164.3100,Calculated,1,9
BaySys,Amundsen,2008-06-02,02:33:29,300034012612770,71.5176,-128.8420,-2.4999,Actual,,Calculated,244.4100,Calculated,1,11
BaySys,Amundsen,2008-06-02,04:33:04,300034012612770,71.5178,-128.8392,0.8113,Actual,,Calculated,115.1100,Calculated,1,8
BaySys,Amundsen,2008-06-02,06:33:15,300034012612770,71.5158,-128.8110,1.5640,Actual,,Calculated,111.4600,Calculated,1,11
BaySys,Amundsen,2008-06-02,08:33:05,300034012612770,71.5077,-128.7634,-4.4367,Actual,,Calculated,107.7500,Calculated,1,8
BaySys,Amundsen,2008-06-02,10:33:35,300034012612770,71.4956,-128.7179,3.9344,Actual,,Calculated,139.9600,Calculated,1,10
BaySys,Amundsen,2008-06-02,12:33:35,300034012612770,71.4846,-128.6879,-4.4100,Actual,,Calculated,128.4800,Calculated,1,10
BaySys,Amundsen,2008-06-02,14:33:08,300034012612770,71.4789,-128.6733,-0.6762,Actual,,Calculated,111.9600,Calculated,1,12
BaySys,Amundsen,2008-06-02,16:33:35,300034012612770,71.4800,-128.6603,-3.6369,Actual,,Calculated,42.6000,Calculated,1,8
BaySys,Amundsen,2008-06-02,18:33:35,300034012612770,71.4813,-128.6264,-6.5325,Actual,,Calculated,92.4500,Calculated,1,10
BaySys,Amundsen,2008-06-02,20:33:26,300034012612770,71.4776,-128.5764,5.3692,Actual,,Calculated,108.8300,Calculated,1,8
BaySys,Amundsen,2008-06-02,22:33:30,300034012612770,71.4687,-128.5302,-5.9849,Actual,,Calculated,129.7600,Calculated,1,11
BaySys,Amundsen,2008-06-03,00:33:59,300034012612770,71.4586,-128.5061,-6.5119,Actual,,Calculated,119.3900,Calculated,1,11
BaySys,Amundsen,2008-06-03,02:33:43,300034012612770,71.4533,-128.5045,-3.5573,Actual,,Calculated,213.7900,Calculated,1,7
BaySys,Amundsen,2008-06-03,04:33:33,300034012612770,71.4526,-128.5044,-5.1105,Actual,,Calculated,254.7500,Calculated,1,7
BaySys,Amundsen,2008-06-03,06:34:05,300034012612770,71.4517,-128.4909,-6.2697,Actual,,Calculated,71.7700,Calculated,1,11
BaySys,Amundsen,2008-06-03,08:33:39,300034012612770,71.4464,-128.4605,-3.0785,Actual,,Calculated,181.7200,Calculated,1,8
BaySys,Amundsen,2008-06-03,10:33:37,300034012612770,71.4373,-128.4302,9.2848,Actual,,Calculated,207.5000,Calculated,1,10
BaySys,Amundsen,2008-06-03,12:34:05,300034012612770,71.4312,-128.4144,-1.4390,Actual,,Calculated,60.6800,Calculated,1,11
BaySys,Amundsen,2008-06-03,14:33:45,300034012612770,71.4330,-128.4041,-3.5156,Actual,,Calculated,35.8500,Calculated,1,8
BaySys,Amundsen,2008-06-03,16:34:23,300034012612770,71.4415,-128.3947,-3.4236,Actual,,Calculated,70.9700,Calculated,1,9
BaySys,Amundsen,2008-06-03,18:34:00,300034012612770,71.4556,-128.3801,-7.9833,Actual,,Calculated,28.1500,Calculated,1,11
BaySys,Amundsen,2008-06-03,20:33:48,300034012612770,71.4710,-128.3482,-2.4300,Actual,,Calculated,49.1400,Calculated,1,11
BaySys,Amundsen,2008-06-03,22:33:54,300034012612770,71.4827,-128.3069,-9.1533,Actual,,Calculated,18.3100,Calculated,1,10
BaySys,Amundsen,2008-06-04,00:33:51,300034012612770,71.4913,-128.2662,-8.8065,Actual,,Calculated,42.0400,Calculated,1,10
BaySys,Amundsen,2008-06-04,02:34:29,300034012612770,71.5032,-128.2522,-3.4661,Actual,,Calculated,29.3000,Calculated,1,12
BaySys,Amundsen,2008-06-04,04:33:55,300034012612770,71.5185,-128.2553,-3.3658,Actual,,Calculated,10.5700,Calculated,1,9
BaySys,Amundsen,2008-06-04,06:34:01,300034012612770,71.5364,-128.2566,-3.6102,Actual,,Calculated,39.3000,Calculated,1,9
BaySys,Amundsen,2008-06-04,08:34:02,300034012612770,71.5538,-128.2469,4.7918,Actual,,Calculated,30.8500,Calculated,1,7
BaySys,Amundsen,2008-06-04,10:34:53,300034012612770,71.5652,-128.2185,-0.7890,Actual,,Calculated,313.1700,Calculated,1,11
BaySys,Amundsen,2008-06-04,12:34:22,300034012612770,71.5713,-128.1851,3.2795,Actual,,Calculated,60.1400,Calculated,1,14
BaySys,Amundsen,2008-06-04,14:34:08,300034012612770,71.5796,-128.1732,-2.4262,Actual,,Calculated,14.4600,Calculated,1,10
BaySys,Amundsen,2008-06-04,16:34:59,300034012612770,71.5977,-128.1864,-6.8734,Actual,,Calculated,347.4300,Calculated,1,9
BaySys,Amundsen,2008-06-04,18:34:12,300034012612770,71.6229,-128.2025,-10.2968,Actual,,Calculated,357.5500,Calculated,1,10
BaySys,Amundsen,2008-06-04,20:34:14,300034012612770,71.6502,-128.1992,4.5552,Actual,,Calculated,10.1500,Calculated,1,11
BaySys,Amundsen,2008-06-04,22:34:17,300034012612770,71.6731,-128.1760,-7.1659,Actual,,Calculated,19.1800,Calculated,1,8
BaySys,Amundsen,2008-06-05,00:34:35,300034012612770,71.6907,-128.1466,-16.3989,Actual,,Calculated,44.6100,Calculated,1,11
BaySys,Amundsen,2008-06-05,02:34:17,300034012612770,71.7038,-128.1302,-5.4416,Actual,,Calculated,348.6900,Calculated,1,9
BaySys,Amundsen,2008-06-05,04:34:22,300034012612770,71.7180,-128.1472,1.3719,Actual,,Calculated,330.2600,Calculated,1,11
BaySys,Amundsen,2008-06-05,06:34:21,300034012612770,71.7391,-128.1888,-2.6619,Actual,,Calculated,329.9700,Calculated,1,9
BaySys,Amundsen,2008-06-05,08:34:25,300034012612770,71.7643,-128.2187,3.2036,Actual,,Calculated,330.3700,Calculated,1,9
BaySys,Amundsen,2008-06-05,10:34:59,300034012612770,71.7832,-128.2284,-4.5870,Actual,,Calculated,295.7200,Calculated,1,12
BaySys,Amundsen,2008-06-05,12:34:33,300034012612770,71.7918,-128.2362,-1.2774,Actual,,Calculated,345.4900,Calculated,1,11
BaySys,Amundsen,2008-06-05,14:35:05,300034012612770,71.7947,-128.2493,-0.1894,Actual,,Calculated,111.3800,Calculated,1,9
BaySys,Amundsen,2008-06-05,16:35:05,300034012612770,71.7958,-128.2874,-2.2775,Actual,,Calculated,11.1400,Calculated,1,8
BaySys,Amundsen,2008-06-05,18:34:38,300034012612770,71.8017,-128.3473,-8.2425,Actual,,Calculated,290.8400,Calculated,1,10
BaySys,Amundsen,2008-06-05,20:34:44,300034012612770,71.8115,-128.3960,15.9148,Actual,,Calculated,330.8100,Calculated,1,10
BaySys,Amundsen,2008-06-05,22:34:42,300034012612770,71.8205,-128.4174,-2.7423,Actual,,Calculated,16.1600,Calculated,1,8
BaySys,Amundsen,2008-06-06,00:35:05,300034012612770,71.8230,-128.4140,-1.6022,Actual,,Calculated,324.0400,Calculated,1,9
BaySys,Amundsen,2008-06-06,02:34:54,300034012612770,71.8180,-128.4200,-10.5725,Actual,,Calculated,214.8400,Calculated,1,9
BaySys,Amundsen,2008-06-06,04:34:43,300034012612770,71.8137,-128.4610,-11.9979,Actual,,Calculated,281.9700,Calculated,1,6
BaySys,Amundsen,2008-06-06,06:35:23,300034012612770,71.8153,-128.5246,-7.9545,Actual,,Calculated,286.2600,Calculated,1,11
BaySys,Amundsen,2008-06-06,08:34:49,300034012612770,71.8247,-128.5790,8.3198,Actual,,Calculated,326.4500,Calculated,1,5
BaySys,Amundsen,2008-06-06,10:35:23,300034012612770,71.8357,-128.6068,-5.7919,Actual,,Calculated,220.2300,Calculated,1,11
BaySys,Amundsen,2008-06-06,12:34:56,300034012612770,71.8416,-128.6103,-7.0179,Actual,,Calculated,346.4600,Calculated,1,11
BaySys,Amundsen,2008-06-06,14:34:54,300034012612770,71.8381,-128.6120,-3.3321,Actual,,Calculated,236.6200,Calculated,1,6
BaySys,Amundsen,2008-06-06,16:35:29,300034012612770,71.8308,-128.6405,-0.5606,Actual,,Calculated,280.5100,Calculated,1,9
BaySys,Amundsen,2008-06-06,18:35:35,300034012612770,71.8270,-128.6974,-6.1257,Actual,,Calculated,219.2100,Calculated,1,9
BaySys,Amundsen,2008-06-06,20:35:19,300034012612770,71.8295,-128.7524,1.9513,Actual,,Calculated,284.8400,Calculated,1,12
BaySys,Amundsen,2008-06-06,22:35:03,300034012612770,71.8340,-128.7878,-3.7296,Actual,,Calculated,349.6900,Calculated,1,9
BaySys,Amundsen,2008-06-07,00:34:59,300034012612770,71.8365,-128.7949,-2.8255,Actual,,Calculated,117.7800,Calculated,1,11
BaySys,Amundsen,2008-06-07,02:35:35,300034012612770,71.8301,-128.7963,-4.4367,Actual,,Calculated,141.2400,Calculated,1,9
BaySys,Amundsen,2008-06-07,04:35:06,300034012612770,71.8201,-128.8337,6.1404,Actual,,Calculated,248.4100,Calculated,1,7
BaySys,Amundsen,2008-06-07,06:35:17,300034012612770,71.8183,-128.9051,23.6890,Actual,,Calculated,203.7400,Calculated,1,9
BaySys,Amundsen,2008-06-07,08:35:31,300034012612770,71.8249,-128.9750,2.2759,Actual,,Calculated,293.3700,Calculated,1,8
BaySys,Amundsen,2008-06-07,10:35:53,300034012612770,71.8338,-129.0253,-0.5378,Actual,,Calculated,311.2000,Calculated,1,11
BaySys,Amundsen,2008-06-07,12:35:16,300034012612770,71.8400,-129.0477,23.9653,Actual,,Calculated,244.3200,Calculated,1,13
BaySys,Amundsen,2008-06-07,14:35:21,300034012612770,71.8387,-129.0615,3.0976,Actual,,Calculated,230.2200,Calculated,1,9
BaySys,Amundsen,2008-06-07,16:35:59,300034012612770,71.8331,-129.0860,-2.5901,Actual,,Calculated,235.9900,Calculated,1,9
BaySys,Amundsen,2008-06-07,18:35:35,300034012612770,71.8301,-129.1299,-6.1672,Actual,,Calculated,274.2800,Calculated,1,9
BaySys,Amundsen,2008-06-07,20:35:31,300034012612770,71.8357,-129.1836,-1.3075,Actual,,Calculated,303.0900,Calculated,1,9
BaySys,Amundsen,2008-06-07,22:35:26,300034012612770,71.8479,-129.2202,-4.8445,Actual,,Calculated,307.7400,Calculated,1,9
BaySys,Amundsen,2008-06-08,00:35:53,300034012612770,71.8604,-129.2308,-12.4995,Actual,,Calculated,49.5000,Calculated,1,11
BaySys,Amundsen,2008-06-08,02:35:59,300034012612770,71.8661,-129.2100,-6.9026,Actual,,Calculated,133.7200,Calculated,1,9
BaySys,Amundsen,2008-06-08,04:35:37,300034012612770,71.8615,-129.1935,3.4038,Actual,,Calculated,150.6200,Calculated,1,6
BaySys,Amundsen,2008-06-08,06:35:38,300034012612770,71.8539,-129.2023,7.0087,Actual,,Calculated,232.7300,Calculated,1,8
BaySys,Amundsen,2008-06-08,08:35:38,300034012612770,71.8515,-129.2299,8.4000,Actual,,Calculated,264.1400,Calculated,1,8
BaySys,Amundsen,2008-06-08,10:36:05,300034012612770,71.8542,-129.2552,-1.3227,Actual,,Calculated,109.2100,Calculated,1,8
BaySys,Amundsen,2008-06-08,12:35:49,300034012612770,71.8601,-129.2542,-2.8989,Actual,,Calculated,29.9600,Calculated,1,11
BaySys,Amundsen,2008-06-08,14:36:23,300034012612770,71.8613,-129.2287,-4.0294,Actual,,Calculated,29.5300,Calculated,1,10
BaySys,Amundsen,2008-06-08,16:36:23,300034012612770,71.8543,-129.2027,4.1640,Actual,,Calculated,158.6100,Calculated,1,8
BaySys,Amundsen,2008-06-08,18:36:23,300034012612770,71.8445,-129.2047,-10.4999,Actual,,Calculated,208.1200,Calculated,1,9
BaySys,Amundsen,2008-06-08,20:35:55,300034012612770,71.8392,-129.2295,5.0082,Actual,,Calculated,201.8500,Calculated,1,11
BaySys,Amundsen,2008-06-08,22:35:51,300034012612770,71.8397,-129.2485,5.9551,Actual,,Calculated,239.8000,Calculated,1,12
BaySys,Amundsen,2008-06-09,00:36:29,300034012612770,71.8416,-129.2431,-34.0069,Actual,,Calculated,60.9400,Calculated,1,13
BaySys,Amundsen,2008-06-09,02:36:29,300034012612770,71.8381,-129.2199,-11.2856,Actual,,Calculated,109.2800,Calculated,1,10
BaySys,Amundsen,2008-06-09,04:35:56,300034012612770,71.8283,-129.1983,8.4246,Actual,,Calculated,163.6600,Calculated,1,8
BaySys,Amundsen,2008-06-09,06:36:23,300034012612770,71.8145,-129.2010,3.0638,Actual,,Calculated,208.0400,Calculated,1,8
BaySys,Amundsen,2008-06-09,08:36:35,300034012612770,71.8058,-129.2269,2.4696,Actual,,Calculated,244.5900,Calculated,1,9
BaySys,Amundsen,2008-06-09,10:36:20,300034012612770,71.8030,-129.2556,-20.0612,Actual,,Calculated,130.9300,Calculated,1,11
BaySys,Amundsen,2008-06-09,12:36:10,300034012612770,71.8042,-129.2675,0.6908,Actual,,Calculated,81.6900,Calculated,1,11
BaySys,Amundsen,2008-06-09,14:36:35,300034012612770,71.8016,-129.2558,-6.9085,Actual,,Calculated,60.2300,Calculated,1,10
BaySys,Amundsen,2008-06-09,16:36:09,300034012612770,71.7922,-129.2364,-7.2233,Actual,,Calculated,171.1100,Calculated,1,7
BaySys,Amundsen,2008-06-09,18:36:14,300034012612770,71.7778,-129.2367,-11.4402,Actual,,Calculated,189.4800,Calculated,1,9
BaySys,Amundsen,2008-06-09,20:36:35,300034012612770,71.7643,-129.2621,15.9456,Actual,,Calculated,191.1600,Calculated,1,10
BaySys,Amundsen,2008-06-09,22:36:17,300034012612770,71.7565,-129.2946,-7.0747,Actual,,Calculated,250.9200,Calculated,1,9
BaySys,Amundsen,2008-06-10,00:36:20,300034012612770,71.7540,-129.3205,-1.4084,Actual,,Calculated,219.3300,Calculated,1,11
BaySys,Amundsen,2008-06-10,02:36:59,300034012612770,71.7516,-129.3233,-5.9114,Actual,,Calculated,137.1700,Calculated,1,6
BaySys,Amundsen,2008-06-10,04:36:30,300034012612770,71.7429,-129.3108,7.7574,Actual,,Calculated,161.6000,Calculated,1,8
BaySys,Amundsen,2008-06-10,06:36:36,300034012612770,71.7278,-129.3082,10.9100,Actual,,Calculated,188.1200,Calculated,1,7
BaySys,Amundsen,2008-06-10,08:36:30,300034012612770,71.7114,-129.3310,17.2049,Actual,,Calculated,219.5200,Calculated,1,10
BaySys,Amundsen,2008-06-10,10:37:05,300034012612770,71.7006,-129.3742,2.2993,Actual,,Calculated,134.7500,Calculated,1,12
BaySys,Amundsen,2008-06-10,12:36:36,300034012612770,71.6979,-129.4138,7.0201,Actual,,Calculated,241.5200,Calculated,1,13
BaySys,Amundsen,2008-06-10,14:36:41,300034012612770,71.6962,-129.4266,16.6037,Actual,,Calculated,154.9300,Calculated,1,6
BaySys,Amundsen,2008-06-10,16:37:05,300034012612770,71.6886,-129.4224,10.5204,Actual,,Calculated,5.8800,Calculated,1,6
BaySys,Amundsen,2008-06-10,18:36:41,300034012612770,71.6745,-129.4263,-4.0826,Actual,,Calculated,204.1300,Calculated,1,11
BaySys,Amundsen,2008-06-10,20:36:44,300034012612770,71.6589,-129.4577,8.4349,Actual,,Calculated,221.6400,Calculated,1,8
BaySys,Amundsen,2008-06-10,22:37:05,300034012612770,71.6478,-129.5124,-1.8954,Actual,,Calculated,259.5000,Calculated,1,11
BaySys,Amundsen,2008-06-11,00:36:58,300034012612770,71.6451,-129.5640,1.3656,Actual,,Calculated,305.5300,Calculated,1,13
BaySys,Amundsen,2008-06-11,02:37:35,300034012612770,71.6452,-129.5919,-0.1802,Actual,,Calculated,243.6300,Calculated,1,8
BaySys,Amundsen,2008-06-11,04:37:06,300034012612770,71.6409,-129.5988,2.4900,Actual,,Calculated,155.6100,Calculated,1,9
BaySys,Amundsen,2008-06-11,06:37:04,300034012612770,71.6292,-129.6063,9.9517,Actual,,Calculated,173.2300,Calculated,1,10
BaySys,Amundsen,2008-06-11,08:37:04,300034012612770,71.6154,-129.6322,19.1342,Actual,,Calculated,216.6600,Calculated,1,9
BaySys,Amundsen,2008-06-11,10:37:35,300034012612770,71.6052,-129.6746,4.4779,Actual,,Calculated,219.9300,Calculated,1,9
BaySys,Amundsen,2008-06-11,12:37:35,300034012612770,71.5998,-129.7176,0.6057,Actual,,Calculated,16.3100,Calculated,1,11
BaySys,Amundsen,2008-06-11,14:37:23,300034012612770,71.5962,-129.7491,1.9583,Actual,,Calculated,232.5600,Calculated,1,11
BaySys,Amundsen,2008-06-11,16:37:08,300034012612770,71.5884,-129.7678,2.1298,Actual,,Calculated,199.5500,Calculated,1,8
BaySys,Amundsen,2008-06-11,18:37:53,300034012612770,71.5769,-129.7861,-1.3295,Actual,,Calculated,208.9800,Calculated,1,11
BaySys,Amundsen,2008-06-11,20:37:53,300034012612770,71.5625,-129.8207,1.3113,Actual,,Calculated,227.4800,Calculated,1,11
BaySys,Amundsen,2008-06-11,22:37:20,300034012612770,71.5499,-129.8820,-5.2370,Actual,,Calculated,245.6000,Calculated,1,12
BaySys,Amundsen,2008-06-12,00:37:16,300034012612770,71.5443,-129.9630,-1.7145,Actual,,Calculated,276.9300,Calculated,1,13
BaySys,Amundsen,2008-06-12,02:37:53,300034012612770,71.5470,-130.0451,-2.3959,Actual,,Calculated,301.3200,Calculated,1,11
BaySys,Amundsen,2008-06-12,04:37:27,300034012612770,71.5543,-130.1087,4.8817,Actual,,Calculated,311.1700,Calculated,1,10